SITRO-AIS 9 (SHCHUKIN)

Last updated on Sat Aug 30 2025 00:03:48 GMT+0000 (Coordinated Universal Time)

1 57201U 23091AM 25241.22001097 .00017829 00000+0 69481-3 0 9992 2 57201 97.5514 301.6722 0009323 40.0132 320.1791 15.25983830120040
UTC large
Height (km)
Speed (km/s)
/
Latitude / Longitude
Inclination (degrees)
Orbital Period (minutes)
Azimuth
Elevation
Range (km)
Doppler Factor

Next 0 passes for location: London (51.5072 / 0.1276)

Sorry there are no passes over London.